Date String (YYYY-MM-DD hh:mm:ss) UTC,Instrument flags,Ambient pressure (hPa),Sample flow (lpm),Bypass flow (lpm),Sample temperature (°C),Ambient temperature (°C),ASC tube jacket temperature (°C),LED temperature (°C),Box temperature (°C),Sample RH (%),Span deviation,Mass concentration (μg/m³),Mass concentration (μg/m³),Mass concentration (μg/m³)
DateTimeUTC,F1_M11,P_M11,Q1_M11,Q2_M11,T1_M11,T2_M11,T3_M11,T4_M11,T5_M11,U1_M11,ZSPAN_M11,X0_M11,X2_M11,X1_M11
2022-01-20 21:00:00,,0827.7,5.01,0.00,21.9,21.7,00.0,31.0,23.7,13.2,-000.8,0019.35,0014.75,0014.26
2022-01-20 21:01:00,,0827.7,4.98,0.00,22.1,22.6,00.0,31.0,24.0,13.2,-000.9,0019.50,0014.85,0014.34
2022-01-20 21:02:00,,0827.7,5.00,0.00,22.2,23.2,00.0,31.0,24.2,13.2,-000.8,0019.62,0014.91,0014.40
2022-01-20 21:03:00,,0827.7,5.01,0.00,22.3,23.0,00.0,31.1,24.3,13.1,-000.7,0019.63,0014.94,0014.46
2022-01-20 21:04:00,,0827.7,5.00,0.00,22.3,22.8,00.0,31.1,24.3,13.1,-000.8,0019.54,0014.97,0014.50
2022-01-20 21:05:00,,0827.7,5.00,0.00,22.4,22.6,00.0,31.1,24.3,13.2,-001.0,0019.28,0015.00,0014.54
2022-01-20 21:06:00,,0827.7,5.00,0.00,22.4,22.4,00.0,31.1,24.2,13.2,-000.9,0019.11,0015.01,0014.57
2022-01-20 21:07:00,,0827.7,4.99,0.00,22.4,22.3,00.0,31.2,24.2,13.2,-000.8,0019.15,0015.02,0014.58
2022-01-20 21:08:00,,0827.7,5.02,0.00,22.4,22.2,00.0,31.2,24.2,13.2,-000.8,0019.22,0015.02,0014.59
2022-01-20 21:09:00,,0827.7,4.99,0.00,22.3,22.1,00.0,31.2,24.2,13.2,-000.9,0019.16,0015.03,0014.60
2022-01-20 21:10:00,,0827.7,5.01,0.00,22.3,22.0,00.0,31.2,24.1,13.2,-001.0,0019.07,0014.95,0014.54
2022-01-20 21:11:00,,0827.6,5.00,0.00,22.3,21.9,00.0,31.2,24.1,13.2,-000.9,0018.97,0014.90,0014.47
2022-01-20 21:12:00,,0827.6,4.98,0.00,22.3,21.9,00.0,31.2,24.1,13.1,-000.9,0018.83,0014.81,0014.37
2022-01-20 21:13:00,,0827.6,5.02,0.00,22.3,21.8,00.0,31.2,24.0,13.0,-000.9,0018.77,0014.75,0014.28
2022-01-20 21:14:00,,0827.7,4.99,0.00,22.3,21.8,00.0,31.2,24.0,12.9,-000.9,0018.66,0014.66,0014.16
2022-01-20 21:15:00,,0827.7,4.99,0.00,22.2,21.8,00.0,31.2,24.0,12.9,-000.9,0018.56,0014.56,0014.04
2022-01-20 21:16:00,,0827.7,5.00,0.00,22.2,21.7,00.0,31.2,24.0,12.8,-000.6,0018.34,0014.44,0013.91
2022-01-20 21:17:00,,0827.7,5.01,0.00,22.2,21.7,00.0,31.2,24.0,12.8,-000.7,0018.25,0014.36,0013.81
2022-01-20 21:18:00,,0827.6,5.00,0.00,22.2,21.6,00.0,31.2,23.9,12.7,-000.7,0018.00,0014.28,0013.71
2022-01-20 21:19:00,,0827.6,4.99,0.00,22.2,21.6,00.0,31.2,23.9,12.7,-000.6,0017.88,0014.18,0013.61
2022-01-20 21:20:00,,0827.5,5.01,0.00,22.2,21.6,00.0,31.2,23.9,12.7,-000.4,0017.67,0014.07,0013.50
2022-01-20 21:21:00,,0827.5,5.00,0.00,22.2,21.6,00.0,31.2,23.9,12.7,-000.4,0017.49,0014.01,0013.46
2022-01-20 21:22:00,,0827.5,5.01,0.00,22.1,21.5,00.0,31.2,23.9,12.7,-000.4,0017.40,0013.94,0013.41
2022-01-20 21:23:00,,0827.5,4.98,0.00,22.1,21.5,00.0,31.2,23.8,12.7,-000.3,0017.43,0013.92,0013.40
2022-01-20 21:24:00,,0827.5,5.01,0.00,22.1,21.5,00.0,31.1,23.8,12.7,-000.2,0017.39,0013.91,0013.40
2022-01-20 21:25:00,,0827.5,4.99,0.00,22.1,21.5,00.0,31.1,23.8,12.7,-000.1,0017.43,0013.92,0013.41
2022-01-20 21:26:00,,0827.6,5.01,0.00,22.1,21.9,00.0,31.1,23.9,12.7,-000.0,0017.56,0013.93,0013.45
2022-01-20 21:27:00,,0827.6,5.00,0.00,22.3,22.6,00.0,31.2,24.1,12.6,-000.1,0017.64,0013.98,0013.50
2022-01-20 21:28:00,,0827.5,4.99,0.00,22.4,23.3,00.0,31.2,24.4,12.5,0000.0,0017.58,0013.98,0013.52
2022-01-20 21:29:00,,0827.4,5.00,0.00,22.5,23.0,00.0,31.3,24.5,12.5,0000.3,0017.64,0013.98,0013.50
2022-01-20 21:30:00,,0827.4,5.00,0.00,22.5,22.8,00.0,31.3,24.4,12.5,0000.3,0017.53,0013.98,0013.51
2022-01-20 21:31:00,,0827.4,4.99,0.00,22.5,22.6,00.0,31.3,24.3,12.5,0000.3,0017.50,0013.97,0013.52
2022-01-20 21:32:00,,0827.4,5.01,0.00,22.5,22.4,00.0,31.3,24.3,12.5,0000.2,0017.56,0013.99,0013.53
2022-01-20 21:33:00,,0827.5,5.01,0.00,22.4,22.3,00.0,31.3,24.2,12.5,0000.5,0017.52,0014.01,0013.55
2022-01-20 21:34:00,,0827.5,4.99,0.00,22.4,22.2,00.0,31.3,24.2,12.5,0000.5,0017.39,0013.99,0013.55
2022-01-20 21:35:00,,0827.4,4.99,0.00,22.4,22.1,00.0,31.3,24.2,12.5,0000.4,0017.36,0013.98,0013.54
2022-01-20 21:36:00,,0827.4,5.01,0.00,22.4,22.0,00.0,31.3,24.1,12.5,0000.2,0017.38,0014.00,0013.54
2022-01-20 21:37:00,,0827.4,5.00,0.00,22.4,22.0,00.0,31.3,24.1,12.5,-000.1,0017.30,0014.02,0013.53
2022-01-20 21:38:00,,0827.4,5.00,0.00,22.4,21.9,00.0,31.3,24.1,12.5,-000.3,0017.42,0014.04,0013.51
2022-01-20 21:39:00,,0827.4,5.00,0.00,22.4,21.9,00.0,31.3,24.1,12.6,-000.1,0017.56,0014.07,0013.52
2022-01-20 21:40:00,,0827.5,5.00,0.00,22.3,21.8,00.0,31.3,24.1,12.6,-000.3,0017.58,0014.09,0013.54
2022-01-20 21:41:00,,0827.5,4.99,0.00,22.3,21.8,00.0,31.3,24.0,12.6,-000.4,0017.66,0014.11,0013.54
2022-01-20 21:42:00,,0827.5,5.01,0.00,22.3,21.7,00.0,31.3,24.1,12.6,-000.4,0017.81,0014.13,0013.52
2022-01-20 21:43:00,,0827.5,4.99,0.00,22.3,21.7,00.0,31.3,24.0,12.6,-000.3,0017.79,0014.11,0013.50
2022-01-20 21:44:00,,0827.4,5.00,0.00,22.3,21.7,00.0,31.3,24.0,12.6,-000.5,0017.95,0014.13,0013.48
2022-01-20 21:45:00,,0827.4,5.00,0.00,22.3,21.7,00.0,31.3,24.0,12.6,-000.6,0018.12,0014.15,0013.47
2022-01-20 21:46:00,,0827.4,4.99,0.00,22.3,21.7,00.0,31.3,24.0,12.6,-000.6,0018.20,0014.18,0013.50
2022-01-20 21:47:00,,0827.4,5.01,0.00,22.2,21.6,00.0,31.3,23.9,12.6,-000.4,0018.19,0014.18,0013.52
2022-01-20 21:48:00,,0827.4,4.99,0.00,22.2,21.6,00.0,31.3,23.9,12.6,-000.3,0018.11,0014.14,0013.51
2022-01-20 21:49:00,,0827.4,4.99,0.00,22.2,21.6,00.0,31.2,23.9,12.7,-000.2,0018.06,0014.14,0013.53
2022-01-20 21:50:00,,0827.4,5.00,0.00,22.2,21.6,00.0,31.2,23.9,12.7,-000.3,0017.99,0014.12,0013.52
2022-01-20 21:51:00,,0827.4,4.99,0.00,22.2,21.5,00.0,31.2,23.9,12.7,-000.2,0017.93,0014.10,0013.52
2022-01-20 21:52:00,,0827.4,5.00,0.00,22.2,21.5,00.0,31.2,23.9,12.7,-000.1,0017.90,0014.09,0013.53
2022-01-20 21:53:00,,0827.4,5.00,0.00,22.2,21.7,00.0,31.2,23.9,12.7,-000.2,0017.82,0014.09,0013.55
2022-01-20 21:54:00,,0827.4,5.00,0.00,22.3,22.5,00.0,31.2,24.1,12.6,-000.1,0017.85,0014.12,0013.57
2022-01-20 21:55:00,,0827.4,5.01,0.00,22.4,23.2,00.0,31.3,24.4,12.5,-000.1,0017.80,0014.14,0013.61
2022-01-20 21:56:00,,0827.4,4.99,0.00,22.5,23.2,00.0,31.3,24.5,12.5,-000.2,0017.81,0014.16,0013.63
2022-01-20 21:57:00,,0827.4,5.00,0.00,22.6,23.0,00.0,31.3,24.5,12.5,-000.4,0017.79,0014.15,0013.62
2022-01-20 21:58:00,,0827.4,5.00,0.00,22.6,22.7,00.0,31.4,24.5,12.5,-000.5,0017.79,0014.14,0013.62
2022-01-20 21:59:00,,0827.4,4.99,0.00,22.6,22.6,00.0,31.4,24.4,12.5,-000.4,0017.78,0014.13,0013.64
